Wind_Speed
6 7 7 7 7 7 7 6 6 6 6 6 6 6 6 7 8 8 9 9 10 11 12 13 13 14 15 16 17 18 19 20 21 22 23 24 24 25
6 7 7 7 7 8 8 8 7 7 7 8 7 7 8 8 9 9 10 10 11 11 13 14 14 15 16 16 17 19 20 21 22 23 24 25 26 27
7 7 7 7 8 8 9 9 9 9 9 9 9 9 9 10 10 10 10 11 11 12 13 14 15 16 17 17 18 19 20 21 22 23 24 24 25 26
7 7 8 8 9 9 10 11 11 11 10 10 10 10 11 11 11 11 11 12 12 13 14 15 16 17 18 18 19 20 21 22 23 24 25 24 25 26
9 9 9 10 10 11 11 12 12 12 12 12 12 12 12 13 13 13 13 14 14 14 15 17 18 19 20 21 21 22 23 24 24 25 26 25 26 27
10 10 11 11 12 12 13 13 13 14 14 14 14 14 14 14 15 15 16 16 16 17 17 18 20 21 22 23 24 24 25 26 26 27 27 28 28 28
11 12 12 13 14 14 15 15 15 16 16 16 16 16 16 16 17 17 18 18 18 19 19 20 21 22 23 25 26 27 27 28 29 30 30 31 31 31
14 14 15 15 16 16 17 17 18 18 18 19 19 19 19 19 19 20 20 20 20 21 22 22 23 24 25 26 27 29 30 31 31 32 33 33 34 34
15 16 17 17 18 18 19 19 20 20 21 21 21 22 22 22 22 23 23 23 23 24 24 25 26 27 28 29 30 31 32 33 33 34 35 35 36 36
18 19 19 20 21 21 21 21 21 22 23 24 24 25 25 25 25 25 25 25 26 27 28 28 29 30 31 31 32 33 34 35 36 37 37 37 38 39
21 22 22 23 24 23 23 23 24 24 25 26 27 27 28 28 28 28 28 29 29 30 31 31 32 32 33 33 35 35 36 37 38 39 40 40 41 41
23 24 25 26 26 25 26 26 27 27 28 29 29 30 30 30 31 32 32 33 33 33 34 35 35 35 35 35 37 38 39 40 41 42 43 43 44 44
26 26 27 28 27 28 29 29 30 30 31 32 32 32 33 33 34 35 35 36 36 36 36 37 38 39 39 38 39 40 41 42 43 44 45 46 46 47
28 29 30 30 30 31 31 32 33 33 34 34 34 35 35 35 36 36 37 38 39 39 40 41 41 42 42 42 42 43 44 45 46 47 48 48 49 49
31 32 32 32 33 33 34 34 35 36 36 37 37 37 38 38 39 39 39 40 41 42 42 43 44 45 46 46 47 47 47 47 49 49 49 49 50 50
34 34 35 34 35 35 36 36 37 38 39 39 39 40 40 40 41 41 41 42 43 43 45 46 47 48 48 49 50 50 50 50 50 50 50 49 49 50
36 36 36 36 37 37 38 39 40 41 41 41 42 42 42 43 43 43 43 44 45 46 47 48 50 51 52 52 52 52 52 52 52 52 52 51 50 51
38 38 38 39 39 40 40 41 42 42 43 43 43 44 44 45 45 45 46 47 48 49 51 52 52 52 52 52 54 54 54 54 54 54 54 54 52 52
40 40 41 41 42 42 43 43 43 44 45 45 45 46 47 47 47 48 48 50 51 52 52 53 53 53 53 52 52 54 55 55 55 55 56 56 55 53
42 43 43 43 43 43 44 45 45 46 47 47 48 47 48 48 49 49 50 51 52 53 52 53 53 54 54 55 54 53 55 56 56 56 56 56 55 54
44 45 45 45 45 45 46 47 47 48 49 49 49 49 49 50 50 51 52 53 53 53 53 52 53 54 55 56 55 53 53 54 55 56 56 56 55 53
46 46 47 47 47 47 48 49 49 50 50 51 51 51 51 51 51 52 52 53 53 53 53 53 52 53 54 55 54 53 52 52 52 53 53 54 54 51
47 48 48 49 49 50 50 51 52 52 52 52 51 51 51 51 51 52 52 53 53 52 52 52 52 52 53 54 54 53 52 52 51 50 49 49 50 48
Wind_Direction
14 14 13 11 8 5 0 354 348 339 328 325 322 317 314 305 297 290 282 272 262 256 251 249 248 249 250 251 249 248 248 249 249 249 248 248 250 252
4 3 2 1 0 357 352 346 341 336 329 325 321 318 314 309 301 294 289 281 271 263 255 254 254 253 253 254 255 254 255 255 254 254 254 253 253 256
353 352 350 348 348 346 344 341 336 329 324 322 319 315 312 311 308 301 295 287 278 270 264 260 260 259 256 256 257 259 260 261 262 262 263 261 259 260
340 338 336 334 333 334 332 330 328 325 320 317 314 311 310 309 306 303 296 289 283 275 269 265 262 263 261 261 261 263 263 264 266 267 269 267 263 262
329 328 327 326 324 324 323 322 321 318 315 312 311 309 306 304 302 300 296 291 285 279 274 270 267 266 265 265 265 266 266 266 267 268 270 268 266 266
320 320 320 319 319 319 317 316 315 313 312 310 308 306 304 302 301 298 295 290 286 283 280 277 274 272 271 270 269 269 270 270 271 271 272 271 268 267
314 316 317 317 315 314 312 312 312 311 309 307 305 304 303 300 298 296 294 290 287 284 283 280 277 276 275 274 273 273 273 272 272 273 273 272 271 270
307 311 314 315 315 313 311 309 308 308 306 304 302 301 300 299 297 295 293 290 287 284 281 280 279 279 278 276 275 276 275 275 274 274 274 273 272 270
305 306 308 309 310 310 309 306 305 305 305 304 302 299 297 296 295 294 292 290 287 285 283 281 280 280 279 278 277 277 276 275 275 275 274 273 273 272
304 305 306 307 307 307 306 305 303 302 301 302 301 299 296 293 292 291 291 291 289 288 286 285 283 282 281 280 278 277 276 276 275 276 276 274 273 271
302 303 304 305 305 304 302 302 302 303 302 302 300 299 298 295 292 291 291 290 290 289 288 287 285 283 282 282 281 279 277 276 275 275 275 275 274 272
301 302 303 304 303 301 301 300 300 299 299 300 299 297 297 296 293 292 291 290 289 288 288 287 286 284 283 282 282 281 280 278 277 276 275 274 274 274
300 301 302 302 301 299 299 299 299 298 298 298 298 297 296 296 294 292 292 291 290 289 288 287 287 286 286 284 283 283 282 280 279 278 276 275 274 274
299 301 301 300 299 299 298 298 299 298 298 297 297 297 295 295 294 292 291 290 289 289 289 288 288 287 287 286 286 285 284 282 281 279 278 276 274 274
298 300 300 298 298 298 298 297 298 298 298 297 296 296 295 294 293 291 290 289 289 290 290 289 289 289 288 288 287 286 285 283 282 280 278 276 274 274
297 298 298 297 297 297 297 297 297 298 298 297 296 295 294 293 292 290 290 289 289 290 290 290 290 289 289 289 288 287 286 285 283 281 279 276 275 275
296 297 297 297 297 297 297 297 296 297 297 296 295 294 293 293 292 291 291 290 290 290 290 290 289 289 289 289 288 288 287 285 283 282 280 277 276 275
295 296 296 296 296 296 296 296 295 296 296 295 295 294 293 293 292 292 292 292 291 291 290 290 289 289 288 289 289 288 287 285 284 282 281 279 277 276
294 295 295 295 296 296 296 296 296 296 296 296 295 294 294 293 293 293 293 293 293 293 292 291 290 290 289 289 289 288 287 286 285 283 282 280 278 277
294 295 295 295 295 296 296 296 296 296 297 296 296 296 295 295 294 294 294 294 294 294 294 293 292 291 291 291 290 289 288 288 287 285 283 281 279 277
294 294 294 295 295 296 296 296 296 296 297 297 296 296 295 295 295 295 295 295 295 295 295 294 293 292 292 292 291 290 289 289 288 287 285 283 280 277
294 294 294 295 295 296 296 296 296 296 296 297 296 296 296 296 296 296 296 296 296 296 296 295 294 293 293 292 292 291 290 289 289 288 287 284 281 278
293 293 294 295 295 295 296 296 296 296 296 297 296 296 296 296 296 296 296 296 296 296 295 295 295 294 294 294 293 293 292 291 289 288 286 284 281 279
Height
5862 5861 5861 5860 5860 5859 5858 5858 5858 5857 5857 5856 5856 5856 5855 5855 5855 5855 5855 5855 5856 5857 5858 5860 5861 5863 5864 5866 5868 5869 5871 5872 5874 5875 5877 5879 5881 5883
5862 5862 5861 5860 5860 5859 5858 5857 5857 5856 5856 5855 5855 5854 5854 5853 5853 5853 5853 5853 5853 5854 5855 5857 5858 5860 5861 5863 5864 5866 5867 5868 5870 5871 5872 5873 5875 5877
5862 5861 5861 5860 5859 5858 5857 5856 5856 5855 5854 5854 5853 5852 5852 5851 5851 5850 5850 5850 5850 5851 5852 5853 5854 5856 5857 5859 5860 5861 5863 5864 5865 5866 5866 5867 5868 5869
5861 5860 5860 5859 5858 5857 5856 5855 5854 5853 5852 5852 5851 5850 5849 5849 5848 5848 5847 5847 5847 5848 5848 5849 5850 5851 5852 5853 5855 5856 5857 5858 5859 5860 5860 5860 5861 5863
5860 5859 5858 5857 5856 5855 5854 5853 5852 5851 5850 5849 5848 5848 5847 5846 5845 5845 5844 5844 5844 5844 5844 5845 5845 5846 5847 5848 5849 5850 5851 5852 5853 5853 5854 5854 5854 5855
5858 5857 5856 5855 5854 5853 5852 5851 5849 5848 5847 5846 5846 5845 5844 5843 5842 5841 5840 5840 5840 5839 5839 5840 5840 5841 5841 5842 5843 5843 5844 5844 5845 5846 5846 5847 5847 5848
5856 5855 5854 5852 5851 5850 5849 5848 5846 5845 5844 5843 5842 5841 5840 5839 5838 5837 5836 5835 5835 5835 5834 5834 5835 5835 5835 5835 5836 5836 5836 5836 5837 5837 5838 5838 5839 5839
5853 5852 5851 5849 5848 5846 5845 5844 5842 5841 5840 5838 5837 5836 5835 5834 5833 5832 5831 5830 5830 5829 5829 5828 5828 5828 5827 5828 5827 5827 5827 5827 5828 5828 5828 5829 5829 5830
5849 5848 5846 5845 5843 5842 5840 5839 5837 5835 5834 5833 5831 5830 5829 5828 5826 5825 5824 5824 5823 5822 5821 5821 5820 5820 5819 5819 5818 5818 5818 5817 5817 5818 5818 5818 5818 5818
5844 5843 5842 5840 5838 5837 5835 5833 5832 5830 5828 5827 5825 5823 5822 5820 5819 5818 5817 5816 5815 5814 5812 5812 5811 5811 5810 5809 5808 5808 5807 5807 5806 5806 5805 5805 5805 5806
5839 5838 5836 5834 5832 5830 5829 5827 5825 5823 5821 5819 5817 5815 5813 5811 5810 5809 5808 5807 5806 5805 5803 5802 5801 5800 5800 5799 5797 5796 5795 5795 5794 5794 5793 5793 5792 5792
5834 5832 5830 5827 5825 5823 5822 5820 5818 5816 5814 5812 5809 5807 5805 5802 5800 5799 5798 5796 5795 5794 5792 5790 5789 5788 5789 5788 5786 5784 5783 5782 5781 5780 5779 5778 5778 5777
5827 5825 5822 5820 5818 5816 5814 5812 5809 5807 5805 5803 5800 5798 5795 5793 5790 5788 5786 5784 5783 5782 5780 5778 5777 5775 5774 5775 5774 5771 5769 5768 5767 5765 5764 5763 5762 5761
5819 5817 5815 5812 5809 5807 5805 5802 5800 5798 5795 5792 5790 5787 5785 5782 5780 5777 5775 5772 5770 5769 5767 5765 5763 5762 5760 5759 5759 5758 5755 5753 5751 5750 5748 5747 5746 5745
5811 5808 5806 5803 5801 5798 5795 5793 5790 5787 5784 5781 5778 5776 5773 5770 5767 5765 5762 5760 5758 5756 5753 5751 5749 5747 5745 5743 5742 5741 5739 5737 5734 5732 5731 5730 5729 5727
5802 5799 5796 5794 5791 5788 5785 5782 5779 5776 5773 5769 5766 5763 5760 5757 5754 5752 5750 5748 5746 5744 5740 5737 5734 5732 5729 5727 5724 5723 5721 5719 5717 5714 5712 5712 5711 5709
5792 5789 5786 5784 5781 5778 5775 5772 5768 5765 5761 5757 5754 5751 5747 5744 5741 5738 5736 5733 5731 5729 5727 5723 5719 5716 5713 5710 5707 5704 5701 5699 5697 5695 5694 5693 5693 5691
5781 5779 5776 5773 5770 5767 5763 5760 5756 5752 5749 5745 5741 5737 5734 5731 5728 5725 5722 5719 5716 5713 5710 5706 5702 5699 5697 5695 5689 5685 5682 5680 5678 5676 5674 5673 5674 5673
5770 5767 5764 5761 5758 5754 5751 5747 5744 5740 5735 5731 5727 5723 5720 5716 5713 5710 5707 5703 5700 5696 5692 5688 5684 5680 5678 5677 5675 5667 5662 5660 5658 5656 5654 5652 5652 5652
5758 5755 5752 5748 5745 5742 5738 5734 5730 5726 5722 5718 5713 5709 5705 5702 5698 5695 5691 5687 5683 5680 5676 5671 5666 5662 5659 5657 5655 5653 5646 5640 5638 5636 5634 5632 5631 5631
5746 5742 5739 5736 5732 5729 5725 5721 5717 5713 5708 5704 5700 5695 5691 5687 5683 5679 5675 5671 5667 5663 5659 5655 5650 5645 5641 5637 5636 5634 5630 5624 5618 5615 5613 5611 5610 5610
5732 5729 5726 5722 5719 5715 5711 5707 5703 5698 5694 5690 5685 5681 5676 5672 5668 5664 5659 5655 5650 5646 5642 5638 5633 5629 5624 5620 5617 5614 5612 5608 5603 5598 5594 5591 5588 5589
5719 5715 5712 5708 5704 5700 5696 5692 5688 5683 5679 5675 5670 5666 5661 5657 5652 5648 5643 5638 5634 5630 5625 5621 5617 5613 5608 5603 5599 5596 5593 5590 5586 5583 5580 5576 5572 5571